UAL207 KSFO-YPAD

Flight info

Callsign UAL207
Flight time N/A
Altitude 30000
Route GNNRR3 CINNY DCT 33N130W 29N135W 25N141W 22N145W 19N150W/N0509F320 12N160W 05N170W/N0503F340 DCT BOILS DCT 10S175E 15S170E/N0495F360 DCT MEPAB R587 ATROP/N0489F380 DCT MUDDL Q35 SANEG Q4 PAVBI Q16 MIA Q4 WOONA Q60 KAKLU
Aircraft B77W/H-SDE1E2E3FGHIJ2J3J4J5M1RWXY/LB1D1

Departure

Time N/A
Airport San Francisco International Airport (KSFO)

Arrival

Time 2026-05-05 21:10
Airport Adelaide International Airport (YPAD)
Time Latitude Longitude Altitude Speed Heading
2026-05-05 15:53 -10.80170 174.21666 34996 ft 480 kts 224°
2026-05-05 15:53 -10.82579 174.19302 35003 ft 480 kts 224°
2026-05-05 15:54 -10.87357 174.14612 35003 ft 480 kts 224°
2026-05-05 15:54 -10.92166 174.09891 35004 ft 480 kts 224°
2026-05-05 15:55 -10.96977 174.05164 35003 ft 480 kts 224°
2026-05-05 15:55 -11.01781 174.00442 35000 ft 480 kts 224°
2026-05-05 15:56 -11.06547 173.95756 35002 ft 480 kts 224°
2026-05-05 15:56 -11.11351 173.91029 34993 ft 480 kts 224°
2026-05-05 15:57 -11.16139 173.86316 35004 ft 480 kts 224°
2026-05-05 15:57 -11.20949 173.81580 35002 ft 480 kts 224°
2026-05-05 15:58 -11.25754 173.76845 35000 ft 480 kts 224°
2026-05-05 15:58 -11.30531 173.72137 35000 ft 480 kts 224°
2026-05-05 15:59 -11.35334 173.67400 35001 ft 480 kts 224°
2026-05-05 15:59 -11.40137 173.62661 34999 ft 480 kts 224°
2026-05-05 16:00 -11.44945 173.57914 34999 ft 480 kts 224°
2026-05-05 16:00 -11.49719 173.53199 34999 ft 480 kts 224°
2026-05-05 16:01 -11.54518 173.48456 35004 ft 480 kts 224°
2026-05-05 16:01 -11.59319 173.43710 35004 ft 480 kts 224°
2026-05-05 16:02 -11.64120 173.38960 34999 ft 480 kts 224°
2026-05-05 16:02 -11.68920 173.34210 34999 ft 480 kts 224°
2026-05-05 16:03 -11.73695 173.29482 35000 ft 480 kts 224°
2026-05-05 16:03 -11.78493 173.24728 35006 ft 480 kts 224°
2026-05-05 16:04 -11.83285 173.19978 34994 ft 480 kts 224°
2026-05-05 16:04 -11.88088 173.15215 35000 ft 480 kts 224°
2026-05-05 16:05 -11.92885 173.10455 34999 ft 480 kts 224°
2026-05-05 16:05 -11.97653 173.05722 34999 ft 480 kts 224°
2026-05-05 16:06 -12.02439 173.00968 35003 ft 480 kts 224°
2026-05-05 16:06 -12.07182 172.96254 34998 ft 480 kts 224°
2026-05-05 16:07 -12.11979 172.91485 35003 ft 480 kts 224°
2026-05-05 16:07 -12.16771 172.86718 35000 ft 480 kts 224°
2026-05-05 16:08 -12.21532 172.81979 35007 ft 481 kts 224°
2026-05-05 16:08 -12.23937 172.79584 35128 ft 483 kts 224°
2026-05-05 16:08 -12.26338 172.77193 35420 ft 481 kts 224°
2026-05-05 16:08 -12.28733 172.74807 35745 ft 479 kts 224°
2026-05-05 16:09 -12.31126 172.72422 35940 ft 479 kts 224°
2026-05-05 16:09 -12.35912 172.67651 35999 ft 479 kts 224°
2026-05-05 16:10 -12.40640 172.62934 35996 ft 476 kts 224°
2026-05-05 16:10 -12.45375 172.58209 36001 ft 474 kts 224°
2026-05-05 16:11 -12.50097 172.53493 36001 ft 474 kts 224°
2026-05-05 16:12 -12.59554 172.44043 36002 ft 475 kts 224°
2026-05-05 16:13 -12.71396 172.32193 36001 ft 478 kts 224°
2026-05-05 16:13 -12.76157 172.27425 36002 ft 479 kts 224°
2026-05-05 16:14 -12.85681 172.17878 36002 ft 479 kts 224°
2026-05-05 16:15 -12.95163 172.08363 36004 ft 478 kts 225°
2026-05-05 16:16 -13.04622 171.98859 36000 ft 477 kts 225°
2026-05-05 16:17 -13.11727 171.91714 36003 ft 477 kts 225°
2026-05-05 16:18 -13.18803 171.84592 36003 ft 477 kts 225°
2026-05-05 16:19 -13.25908 171.77434 36002 ft 477 kts 225°
2026-05-05 16:19 -13.33013 171.70271 35999 ft 477 kts 225°
2026-05-05 16:20 -13.42484 171.60712 36003 ft 477 kts 225°
2026-05-05 16:22 -13.54331 171.48740 36000 ft 477 kts 225°
2026-05-05 16:23 -13.63775 171.39182 36003 ft 477 kts 225°
2026-05-05 16:23 -13.70881 171.31984 36001 ft 477 kts 225°
2026-05-05 16:24 -13.75613 171.27187 36003 ft 477 kts 225°
2026-05-05 16:25 -13.82679 171.20018 36004 ft 477 kts 225°
2026-05-05 16:25 -13.89778 171.12810 36003 ft 477 kts 225°
2026-05-05 16:26 -13.99230 171.03201 36004 ft 477 kts 225°
2026-05-05 16:27 -14.03903 170.98447 36003 ft 477 kts 225°
2026-05-05 16:27 -14.08633 170.93631 36000 ft 477 kts 225°
2026-05-05 16:28 -14.13334 170.88843 36003 ft 477 kts 225°
2026-05-05 16:28 -14.18064 170.84021 36000 ft 477 kts 225°
2026-05-05 16:29 -14.22764 170.79227 36000 ft 477 kts 225°
2026-05-05 16:29 -14.27487 170.74408 36001 ft 477 kts 225°
2026-05-05 16:30 -14.32210 170.69584 36003 ft 477 kts 225°
2026-05-05 16:30 -14.36927 170.64764 36004 ft 477 kts 225°
2026-05-05 16:31 -14.41646 170.59938 35999 ft 477 kts 225°
2026-05-05 16:31 -14.46338 170.55137 36002 ft 477 kts 225°
2026-05-05 16:32 -14.51059 170.50304 36004 ft 477 kts 225°
2026-05-05 16:32 -14.55770 170.45478 35998 ft 477 kts 225°
2026-05-05 16:33 -14.60487 170.40642 36003 ft 477 kts 225°
2026-05-05 16:33 -14.65172 170.35836 36003 ft 477 kts 225°
2026-05-05 16:34 -14.69881 170.31002 36004 ft 477 kts 225°
2026-05-05 16:34 -14.74590 170.26165 36000 ft 477 kts 225°
2026-05-05 16:35 -14.79306 170.21318 35997 ft 477 kts 225°
2026-05-05 16:35 -14.84016 170.16473 36003 ft 477 kts 225°
2026-05-05 16:36 -14.88723 170.11628 36001 ft 477 kts 225°
2026-05-05 16:36 -14.93404 170.06805 36003 ft 477 kts 225°
2026-05-05 16:37 -14.98109 170.01955 35998 ft 477 kts 225°
2026-05-05 16:37 -15.02762 169.97148 35998 ft 477 kts 225°
2026-05-05 16:38 -15.07450 169.92270 36001 ft 477 kts 225°
2026-05-05 16:38 -15.12132 169.87388 36004 ft 477 kts 225°
2026-05-05 16:39 -15.16025 169.83327 36004 ft 477 kts 225°
2026-05-05 16:39 -15.21466 169.77649 36004 ft 477 kts 225°
2026-05-05 16:40 -15.25357 169.73588 36003 ft 477 kts 225°
2026-05-05 16:40 -15.30037 169.68699 36003 ft 477 kts 225°
2026-05-05 16:41 -15.34718 169.63806 36000 ft 477 kts 225°
2026-05-05 16:41 -15.39397 169.58913 36001 ft 477 kts 225°
2026-05-05 16:42 -15.44071 169.54020 35999 ft 477 kts 225°
2026-05-05 16:42 -15.48723 169.49147 35999 ft 477 kts 225°
2026-05-05 16:43 -15.53395 169.44251 36000 ft 477 kts 225°
2026-05-05 16:43 -15.58072 169.39346 36003 ft 477 kts 225°
2026-05-05 16:44 -15.62738 169.34448 35997 ft 477 kts 225°
2026-05-05 16:44 -15.67381 169.29572 36003 ft 477 kts 225°
2026-05-05 16:45 -15.72045 169.24670 36003 ft 477 kts 225°
2026-05-05 16:45 -15.76716 169.19758 35998 ft 477 kts 225°
2026-05-05 16:46 -15.81381 169.14848 36000 ft 477 kts 225°
2026-05-05 16:46 -15.86045 169.09936 36001 ft 477 kts 225°
2026-05-05 16:47 -15.90709 169.05020 36001 ft 477 kts 225°
2026-05-05 16:47 -15.95380 169.00095 35998 ft 477 kts 225°
2026-05-05 16:48 -15.99969 168.95252 36003 ft 477 kts 226°
2026-05-05 16:48 -16.04628 168.90331 35998 ft 477 kts 226°
2026-05-05 16:49 -16.09285 168.85409 36003 ft 477 kts 226°
2026-05-05 16:49 -16.13953 168.80472 35998 ft 477 kts 226°
2026-05-05 16:50 -16.18608 168.75545 36000 ft 477 kts 226°
2026-05-05 16:50 -16.23237 168.70642 35998 ft 477 kts 226°
2026-05-05 16:51 -16.27896 168.65704 36000 ft 477 kts 226°
2026-05-05 16:51 -16.32558 168.60760 35998 ft 477 kts 226°
2026-05-05 16:52 -16.37208 168.55823 36000 ft 477 kts 226°
2026-05-05 16:52 -16.41832 168.50912 36003 ft 477 kts 226°
2026-05-05 16:53 -16.46484 168.45967 36001 ft 477 kts 226°
2026-05-05 16:53 -16.51130 168.41025 36000 ft 477 kts 226°
2026-05-05 16:54 -16.55780 168.36074 35999 ft 477 kts 226°
2026-05-05 16:54 -16.60423 168.31129 36003 ft 477 kts 226°
2026-05-05 16:55 -16.65077 168.26167 36004 ft 477 kts 226°
2026-05-05 16:55 -16.69692 168.21243 35997 ft 478 kts 226°
2026-05-05 16:56 -16.74350 168.16270 36005 ft 478 kts 226°
2026-05-05 16:56 -16.79003 168.11298 36002 ft 479 kts 226°
2026-05-05 16:57 -16.83653 168.06326 36001 ft 478 kts 226°
2026-05-05 16:57 -16.88301 168.01353 36001 ft 478 kts 226°
2026-05-05 16:58 -16.92869 167.96460 36000 ft 478 kts 226°
2026-05-05 16:58 -16.97509 167.91489 36000 ft 477 kts 226°
2026-05-05 16:59 -17.02140 167.86522 36000 ft 477 kts 226°
2026-05-05 16:59 -17.06770 167.81552 35998 ft 477 kts 226°
2026-05-05 17:00 -17.11404 167.76575 36002 ft 477 kts 226°
2026-05-05 17:00 -17.16017 167.71617 36004 ft 477 kts 226°
2026-05-05 17:01 -17.20647 167.66636 36001 ft 477 kts 226°
2026-05-05 17:01 -17.25272 167.61657 36000 ft 477 kts 226°
2026-05-05 17:02 -17.29896 167.56675 36003 ft 477 kts 226°
2026-05-05 17:02 -17.34525 167.51685 36001 ft 477 kts 226°
2026-05-05 17:03 -17.38729 167.47148 36004 ft 477 kts 226°
2026-05-05 17:03 -17.43352 167.42156 36002 ft 477 kts 226°
2026-05-05 17:04 -17.47951 167.37186 36001 ft 478 kts 226°
2026-05-05 17:04 -17.52576 167.32185 36003 ft 478 kts 226°
2026-05-05 17:05 -17.57197 167.27183 36003 ft 478 kts 226°
2026-05-05 17:05 -17.61818 167.22178 36001 ft 478 kts 226°
2026-05-05 17:06 -17.66447 167.17159 36003 ft 478 kts 226°
2026-05-05 17:06 -17.71038 167.12179 36002 ft 477 kts 226°
2026-05-05 17:07 -17.75654 167.07168 36000 ft 477 kts 226°
2026-05-05 17:07 -17.80276 167.02146 36000 ft 477 kts 226°
2026-05-05 17:08 -17.84846 166.97176 35998 ft 477 kts 226°
2026-05-05 17:08 -17.89458 166.92156 36001 ft 477 kts 226°
2026-05-05 17:09 -17.93500 166.87754 36004 ft 477 kts 226°
2026-05-05 17:09 -17.98079 166.82763 36000 ft 477 kts 226°
2026-05-05 17:10 -18.02695 166.77728 35999 ft 477 kts 226°
2026-05-05 17:10 -18.07298 166.72704 35998 ft 477 kts 226°
2026-05-05 17:11 -18.11903 166.67672 36002 ft 477 kts 226°
2026-05-05 17:11 -18.16115 166.63067 35999 ft 477 kts 226°
2026-05-05 17:12 -18.20757 166.57987 35998 ft 477 kts 226°
2026-05-05 17:12 -18.25357 166.52950 36001 ft 477 kts 226°
2026-05-05 17:13 -18.29400 166.48518 36000 ft 477 kts 226°
2026-05-05 17:13 -18.33982 166.43492 35999 ft 477 kts 226°
2026-05-05 17:14 -18.38579 166.38445 36002 ft 477 kts 226°
2026-05-05 17:14 -18.43174 166.33397 36003 ft 477 kts 226°
2026-05-05 17:15 -18.47769 166.28345 36002 ft 477 kts 226°
2026-05-05 17:15 -18.52361 166.23292 36002 ft 477 kts 226°
2026-05-05 17:16 -18.56956 166.18231 36000 ft 477 kts 226°
2026-05-05 17:16 -18.61547 166.13170 36003 ft 477 kts 226°
2026-05-05 17:17 -18.66114 166.08132 36001 ft 477 kts 226°
2026-05-05 17:17 -18.70702 166.03066 36003 ft 477 kts 226°
2026-05-05 17:18 -18.75244 165.98047 36003 ft 477 kts 226°
2026-05-05 17:18 -18.79830 165.92975 36002 ft 477 kts 226°
2026-05-05 17:19 -18.84414 165.87901 36003 ft 477 kts 226°
2026-05-05 17:19 -18.88972 165.82851 35997 ft 477 kts 226°
2026-05-05 17:20 -18.93563 165.77761 36003 ft 477 kts 226°
2026-05-05 17:20 -18.98147 165.72673 36001 ft 477 kts 226°
2026-05-05 17:21 -19.02732 165.67581 36003 ft 477 kts 226°
2026-05-05 17:22 -19.09573 165.59975 36001 ft 478 kts 226°
2026-05-05 17:22 -19.14151 165.54879 36001 ft 478 kts 226°
2026-05-05 17:23 -19.18728 165.49780 36004 ft 478 kts 226°
2026-05-05 17:23 -19.23304 165.44679 36003 ft 478 kts 227°
2026-05-05 17:24 -19.27876 165.39576 35999 ft 478 kts 227°
2026-05-05 17:24 -19.32445 165.34473 35999 ft 478 kts 227°
2026-05-05 17:25 -19.37015 165.29365 35997 ft 478 kts 227°
2026-05-05 17:25 -19.41554 165.24286 36004 ft 478 kts 227°
2026-05-05 17:26 -19.46130 165.19161 36003 ft 478 kts 227°
2026-05-05 17:26 -19.50698 165.14041 35999 ft 478 kts 227°
2026-05-05 17:27 -19.55263 165.08920 35998 ft 478 kts 227°
2026-05-05 17:27 -19.59055 165.04663 36004 ft 478 kts 227°
2026-05-05 17:28 -19.64311 164.98757 35999 ft 478 kts 227°
2026-05-05 17:28 -19.68132 164.94459 36001 ft 478 kts 227°
2026-05-05 17:29 -19.72693 164.89325 36000 ft 478 kts 227°
2026-05-05 17:29 -19.77227 164.84217 36001 ft 478 kts 227°
2026-05-05 17:30 -19.81784 164.79079 36000 ft 478 kts 227°
2026-05-05 17:30 -19.86343 164.73933 36000 ft 478 kts 227°
2026-05-05 17:31 -19.90900 164.68786 36003 ft 478 kts 227°
2026-05-05 17:31 -19.95450 164.63641 36001 ft 478 kts 227°
2026-05-05 17:32 -19.99975 164.58520 35999 ft 478 kts 227°
2026-05-05 17:32 -20.04520 164.53372 36003 ft 478 kts 227°
2026-05-05 17:33 -20.09070 164.48213 36001 ft 478 kts 227°
2026-05-05 17:33 -20.13617 164.43053 36002 ft 478 kts 227°
2026-05-05 17:34 -20.18169 164.37883 36000 ft 478 kts 227°
2026-05-05 17:34 -20.22710 164.32721 35997 ft 478 kts 227°
2026-05-05 17:35 -20.27223 164.27585 36002 ft 478 kts 227°
2026-05-05 17:35 -20.31765 164.22413 35996 ft 478 kts 227°
2026-05-05 17:36 -20.36305 164.17236 36002 ft 478 kts 227°
2026-05-05 17:36 -20.40848 164.12053 36002 ft 478 kts 227°
2026-05-05 17:37 -20.45388 164.06867 35998 ft 478 kts 227°
2026-05-05 17:37 -20.49924 164.01683 35998 ft 478 kts 227°
2026-05-05 17:38 -20.54418 163.96540 36000 ft 478 kts 227°
2026-05-05 17:38 -20.58919 163.91385 36002 ft 478 kts 227°
2026-05-05 17:39 -20.63449 163.86192 36001 ft 478 kts 227°
2026-05-05 17:39 -20.67981 163.80992 36001 ft 478 kts 227°
2026-05-05 17:40 -20.72507 163.75794 36002 ft 478 kts 227°
2026-05-05 17:40 -20.77030 163.70595 36003 ft 478 kts 227°
2026-05-05 17:41 -20.81548 163.65395 36003 ft 478 kts 227°
2026-05-05 17:41 -20.86077 163.60179 36001 ft 478 kts 227°
2026-05-05 17:42 -20.90565 163.55005 35997 ft 478 kts 227°
2026-05-05 17:42 -20.95088 163.49785 36002 ft 478 kts 227°
2026-05-05 17:43 -20.99607 163.44565 36001 ft 478 kts 227°
2026-05-05 17:43 -21.04115 163.39352 36003 ft 478 kts 227°
2026-05-05 17:44 -21.08631 163.34126 35998 ft 478 kts 227°
2026-05-05 17:44 -21.13117 163.28929 36000 ft 478 kts 227°
2026-05-05 17:45 -21.17625 163.23701 36001 ft 478 kts 227°
2026-05-05 17:45 -21.22141 163.18458 36003 ft 478 kts 227°
2026-05-05 17:46 -21.26650 163.13219 36000 ft 478 kts 227°
2026-05-05 17:46 -21.31155 163.07978 36001 ft 478 kts 227°
2026-05-05 17:47 -21.35638 163.02757 36003 ft 478 kts 227°
2026-05-05 17:47 -21.39875 162.97360 36001 ft 477 kts 234°
2026-05-05 17:48 -21.43731 162.91559 36003 ft 477 kts 235°
2026-05-05 17:48 -21.47562 162.85730 36001 ft 477 kts 235°
2026-05-05 17:49 -21.51387 162.79949 36002 ft 477 kts 234°
2026-05-05 17:49 -21.55247 162.74142 36003 ft 478 kts 234°
2026-05-05 17:50 -21.59109 162.68335 36003 ft 478 kts 234°
2026-05-05 17:50 -21.62970 162.62523 35998 ft 478 kts 234°
2026-05-05 17:51 -21.66830 162.56706 36001 ft 478 kts 234°
2026-05-05 17:51 -21.70686 162.50885 36003 ft 478 kts 234°
2026-05-05 17:52 -21.74541 162.45062 36002 ft 478 kts 234°
2026-05-05 17:52 -21.78390 162.39241 35998 ft 478 kts 234°
2026-05-05 17:53 -21.82238 162.33414 36002 ft 478 kts 234°
2026-05-05 17:53 -21.86086 162.27583 36003 ft 477 kts 234°
2026-05-05 17:54 -21.89906 162.21787 35997 ft 477 kts 235°
2026-05-05 17:54 -21.93750 162.15948 36003 ft 477 kts 235°
2026-05-05 17:55 -21.97593 162.10104 36005 ft 477 kts 235°
2026-05-05 17:55 -22.01429 162.04265 35999 ft 477 kts 235°
2026-05-05 17:56 -22.05205 161.98512 35999 ft 477 kts 235°
2026-05-05 17:56 -22.09043 161.92657 36003 ft 477 kts 235°
2026-05-05 17:57 -22.12878 161.86802 36001 ft 477 kts 235°
2026-05-05 17:57 -22.16718 161.80931 36005 ft 477 kts 235°
2026-05-05 17:58 -22.20523 161.75108 36003 ft 478 kts 235°
2026-05-05 17:58 -22.24354 161.69238 36001 ft 478 kts 235°
2026-05-05 17:59 -22.28177 161.63374 35998 ft 478 kts 235°
2026-05-05 17:59 -22.32003 161.57500 36002 ft 478 kts 235°
2026-05-05 18:00 -22.35800 161.51663 36002 ft 478 kts 235°
2026-05-05 18:00 -22.39622 161.45782 36000 ft 478 kts 235°
2026-05-05 18:01 -22.43437 161.39905 36000 ft 478 kts 235°
2026-05-05 18:01 -22.47254 161.34019 36001 ft 478 kts 235°
2026-05-05 18:02 -22.51043 161.28168 35999 ft 478 kts 235°
2026-05-05 18:02 -22.54859 161.22269 36003 ft 478 kts 235°
2026-05-05 18:03 -22.58665 161.16380 36003 ft 478 kts 235°
2026-05-05 18:03 -22.62473 161.10482 36002 ft 478 kts 235°
2026-05-05 18:04 -22.66251 161.04622 36002 ft 478 kts 235°
2026-05-05 18:04 -22.70014 160.98779 36002 ft 478 kts 235°
2026-05-05 18:05 -22.73811 160.92878 36003 ft 478 kts 235°
2026-05-05 18:05 -22.77614 160.86961 35999 ft 478 kts 235°
2026-05-05 18:06 -22.81389 160.81079 36002 ft 478 kts 235°
2026-05-05 18:06 -22.85181 160.75165 36001 ft 478 kts 235°
2026-05-05 18:07 -22.88970 160.69250 36000 ft 478 kts 235°
2026-05-05 18:07 -22.92759 160.63326 36004 ft 478 kts 235°
2026-05-05 18:08 -22.96546 160.57400 36000 ft 478 kts 235°
2026-05-05 18:08 -23.00325 160.51480 36003 ft 478 kts 235°
2026-05-05 18:09 -23.04092 160.45572 35997 ft 478 kts 235°
2026-05-05 18:09 -23.07873 160.39633 35999 ft 478 kts 235°
2026-05-05 18:10 -23.11649 160.33697 36003 ft 478 kts 236°
2026-05-05 18:10 -23.15430 160.27746 36000 ft 478 kts 236°
2026-05-05 18:11 -23.19183 160.21832 35999 ft 478 kts 236°
2026-05-05 18:11 -23.22954 160.15883 35998 ft 478 kts 236°
2026-05-05 18:12 -23.26724 160.09928 35999 ft 478 kts 236°
2026-05-05 18:12 -23.30489 160.03975 35998 ft 478 kts 236°
2026-05-05 18:13 -23.34214 159.98077 36001 ft 478 kts 236°
2026-05-05 18:13 -23.37978 159.92112 36002 ft 478 kts 236°
2026-05-05 18:14 -23.41740 159.86143 36000 ft 478 kts 236°
2026-05-05 18:14 -23.45474 159.80209 35998 ft 478 kts 236°
2026-05-05 18:15 -23.49228 159.74238 36005 ft 478 kts 236°
2026-05-05 18:15 -23.52985 159.68254 35997 ft 478 kts 236°
2026-05-05 18:16 -23.56735 159.62273 35998 ft 478 kts 236°
2026-05-05 18:16 -23.60481 159.56292 36002 ft 478 kts 236°
2026-05-05 18:17 -23.63595 159.51316 36003 ft 478 kts 236°
2026-05-05 18:17 -23.67338 159.45333 36002 ft 478 kts 236°
2026-05-05 18:18 -23.71083 159.39340 36004 ft 478 kts 236°
2026-05-05 18:18 -23.74822 159.33345 36005 ft 478 kts 236°
2026-05-05 18:19 -23.78558 159.27346 36003 ft 478 kts 236°
2026-05-05 18:19 -23.82291 159.21344 36003 ft 478 kts 236°
2026-05-05 18:20 -23.86004 159.15368 36001 ft 478 kts 236°
2026-05-05 18:20 -23.89731 159.09360 36001 ft 478 kts 236°
2026-05-05 18:21 -23.93464 159.03337 36002 ft 478 kts 236°
2026-05-05 18:21 -23.97155 158.97374 35997 ft 478 kts 236°
2026-05-05 18:22 -24.00876 158.91356 36001 ft 478 kts 236°
2026-05-05 18:22 -24.04596 158.85332 36002 ft 478 kts 236°
2026-05-05 18:23 -24.08316 158.79301 35999 ft 478 kts 236°
2026-05-05 18:23 -24.12007 158.73310 36001 ft 478 kts 236°
2026-05-05 18:24 -24.15725 158.67267 36003 ft 478 kts 236°
2026-05-05 18:24 -24.19436 158.61228 36000 ft 478 kts 236°
2026-05-05 18:25 -24.23148 158.55180 35998 ft 478 kts 236°
2026-05-05 18:25 -24.26834 158.49168 36003 ft 478 kts 236°
2026-05-05 18:26 -24.30543 158.43109 35998 ft 478 kts 236°
2026-05-05 18:26 -24.34243 158.37058 36002 ft 478 kts 236°
2026-05-05 18:27 -24.37945 158.30998 36000 ft 478 kts 236°
2026-05-05 18:27 -24.41641 158.24938 35999 ft 478 kts 236°
2026-05-05 18:28 -24.47162 158.15874 36003 ft 478 kts 236°
2026-05-05 18:28 -24.50855 158.09801 36003 ft 478 kts 236°
2026-05-05 18:29 -24.54544 158.03727 36003 ft 478 kts 236°
2026-05-05 18:29 -24.58194 157.97711 36000 ft 478 kts 236°
2026-05-05 18:30 -24.61883 157.91622 36003 ft 478 kts 236°
2026-05-05 18:30 -24.65542 157.85575 36004 ft 478 kts 236°
2026-05-05 18:31 -24.69220 157.79489 36002 ft 478 kts 236°
2026-05-05 18:31 -24.72894 157.73401 36002 ft 478 kts 237°
2026-05-05 18:32 -24.76579 157.67289 35999 ft 478 kts 237°
2026-05-05 18:32 -24.80232 157.61221 36002 ft 478 kts 237°
2026-05-05 18:33 -24.83903 157.55116 36002 ft 478 kts 237°
2026-05-05 18:33 -24.87572 157.49006 36003 ft 478 kts 237°
2026-05-05 18:34 -24.91218 157.42927 36002 ft 478 kts 237°
2026-05-05 18:34 -24.94884 157.36807 36000 ft 478 kts 237°
2026-05-05 18:35 -24.98545 157.30687 36002 ft 478 kts 237°
2026-05-05 18:35 -25.02200 157.24571 36003 ft 478 kts 237°
2026-05-05 18:36 -25.05854 157.18446 36001 ft 478 kts 237°
2026-05-05 18:36 -25.09506 157.12319 36002 ft 478 kts 237°
2026-05-05 18:37 -25.13157 157.06185 35999 ft 478 kts 237°
2026-05-05 18:37 -25.16781 157.00087 36001 ft 478 kts 237°
2026-05-05 18:38 -25.20390 156.94009 36001 ft 478 kts 237°
2026-05-05 18:38 -25.24031 156.87867 36005 ft 478 kts 237°
2026-05-05 18:39 -25.27670 156.81722 36005 ft 478 kts 237°
2026-05-05 18:39 -25.31310 156.75566 36003 ft 478 kts 237°
2026-05-05 18:40 -25.34921 156.69452 36003 ft 478 kts 237°
2026-05-05 18:40 -25.38553 156.63294 36000 ft 478 kts 237°
2026-05-05 18:41 -25.42183 156.57131 35999 ft 478 kts 237°
2026-05-05 18:41 -25.45811 156.50963 36002 ft 478 kts 237°
2026-05-05 18:42 -25.49436 156.44792 36003 ft 478 kts 237°
2026-05-05 18:42 -25.53061 156.38613 36000 ft 478 kts 237°
2026-05-05 18:43 -25.56658 156.32474 36004 ft 478 kts 237°
2026-05-05 18:43 -25.60274 156.26294 36000 ft 478 kts 237°
2026-05-05 18:44 -25.63890 156.20105 36002 ft 478 kts 237°
2026-05-05 18:44 -25.67506 156.13905 36001 ft 478 kts 237°
2026-05-05 18:45 -25.71114 156.07714 36006 ft 478 kts 237°
2026-05-05 18:45 -25.72902 156.04644 36107 ft 480 kts 237°
2026-05-05 18:45 -25.74713 156.01531 36388 ft 480 kts 237°
2026-05-05 18:46 -25.76478 155.98493 36700 ft 478 kts 237°
2026-05-05 18:46 -25.78281 155.95389 36930 ft 478 kts 237°
2026-05-05 18:46 -25.81893 155.89157 36995 ft 479 kts 237°
2026-05-05 18:47 -25.85489 155.82944 36996 ft 476 kts 237°
2026-05-05 18:47 -25.89059 155.76766 37000 ft 474 kts 237°
2026-05-05 18:48 -25.92618 155.70601 37002 ft 473 kts 237°
2026-05-05 18:48 -25.96170 155.64439 37003 ft 473 kts 237°
2026-05-05 18:49 -25.99704 155.58299 37003 ft 474 kts 237°
2026-05-05 18:49 -26.03257 155.52118 37003 ft 476 kts 237°
2026-05-05 18:50 -26.06821 155.45911 37002 ft 477 kts 237°
2026-05-05 18:50 -26.10391 155.39685 37002 ft 478 kts 237°
2026-05-05 18:51 -26.13964 155.33444 37002 ft 478 kts 238°
2026-05-05 18:51 -26.17516 155.27233 37001 ft 478 kts 238°
2026-05-05 18:52 -26.21089 155.20974 37001 ft 478 kts 238°
2026-05-05 18:52 -26.24658 155.14717 37001 ft 478 kts 238°
2026-05-05 18:53 -26.28228 155.08447 37001 ft 478 kts 238°
2026-05-05 18:53 -26.31766 155.02224 37001 ft 477 kts 238°
2026-05-05 18:54 -26.35279 154.96040 37001 ft 477 kts 238°
2026-05-05 18:54 -26.38824 154.89787 37001 ft 477 kts 238°
2026-05-05 18:55 -26.42367 154.83532 37001 ft 477 kts 238°
2026-05-05 18:55 -26.45905 154.77276 37001 ft 476 kts 238°
2026-05-05 18:56 -26.49440 154.71016 37001 ft 476 kts 238°
2026-05-05 18:56 -26.52978 154.64743 37001 ft 477 kts 238°
2026-05-05 18:57 -26.56490 154.58506 37002 ft 477 kts 238°
2026-05-05 18:57 -26.60015 154.52238 37002 ft 477 kts 238°
2026-05-05 18:58 -26.63544 154.45954 37002 ft 477 kts 238°
2026-05-05 18:58 -26.67072 154.39663 37001 ft 477 kts 238°
2026-05-05 18:59 -26.70593 154.33376 37001 ft 477 kts 238°
2026-05-05 18:59 -26.74095 154.27112 37001 ft 477 kts 238°
2026-05-05 19:00 -26.77611 154.20816 37001 ft 477 kts 238°
2026-05-05 19:00 -26.81128 154.14509 37001 ft 477 kts 238°
2026-05-05 19:01 -26.84641 154.08198 37001 ft 477 kts 238°
2026-05-05 19:01 -26.88147 154.01889 37001 ft 477 kts 238°
2026-05-05 19:02 -26.91620 153.95637 37001 ft 477 kts 238°
2026-05-05 19:02 -26.95550 153.89698 37004 ft 477 kts 230°
2026-05-05 19:03 -26.99878 153.84059 37002 ft 477 kts 229°
2026-05-05 19:03 -27.03699 153.79078 37001 ft 477 kts 230°
2026-05-05 19:04 -27.08004 153.73397 37002 ft 477 kts 230°
2026-05-05 19:04 -27.12291 153.67703 37001 ft 477 kts 230°
2026-05-05 19:05 -27.16576 153.62001 37001 ft 478 kts 230°
2026-05-05 19:05 -27.19582 153.57999 37001 ft 478 kts 230°
2026-05-05 19:06 -27.23422 153.52882 37001 ft 478 kts 230°
2026-05-05 19:06 -27.27707 153.47164 37001 ft 478 kts 230°
2026-05-05 19:07 -27.31988 153.41444 37001 ft 478 kts 230°
2026-05-05 19:07 -27.35773 153.36645 37004 ft 478 kts 224°
2026-05-05 19:08 -27.40186 153.32517 37005 ft 478 kts 215°
2026-05-05 19:08 -27.45111 153.29073 37008 ft 478 kts 211°
2026-05-05 19:09 -27.50200 153.25727 37002 ft 478 kts 211°
2026-05-05 19:09 -27.55820 153.21993 37000 ft 479 kts 211°
2026-05-05 19:10 -27.61542 153.18136 37001 ft 479 kts 211°
2026-05-05 19:10 -27.66555 153.14742 37004 ft 479 kts 211°
2026-05-05 19:11 -27.72290 153.10855 37000 ft 479 kts 211°
2026-05-05 19:11 -27.78007 153.06979 37002 ft 479 kts 211°
2026-05-05 19:12 -27.83540 153.02808 36996 ft 478 kts 220°
2026-05-05 19:12 -27.88488 152.97923 37001 ft 478 kts 222°
2026-05-05 19:13 -27.93267 152.93109 37002 ft 478 kts 222°
2026-05-05 19:13 -27.97639 152.88740 37001 ft 478 kts 221°
2026-05-05 19:14 -28.02642 152.83771 37000 ft 479 kts 221°
2026-05-05 19:14 -28.07625 152.78825 37004 ft 480 kts 221°
2026-05-05 19:15 -28.12645 152.73833 36997 ft 480 kts 221°
2026-05-05 19:15 -28.17667 152.68831 37004 ft 480 kts 221°
2026-05-05 19:16 -28.22695 152.63815 36997 ft 481 kts 221°
2026-05-05 19:16 -28.27720 152.58794 37002 ft 482 kts 221°
2026-05-05 19:17 -28.32731 152.53781 37001 ft 482 kts 221°
2026-05-05 19:17 -28.37719 152.48673 37002 ft 483 kts 225°
2026-05-05 19:18 -28.42053 152.42847 37009 ft 482 kts 232°
2026-05-05 19:18 -28.46159 152.36809 37000 ft 482 kts 232°
2026-05-05 19:19 -28.50248 152.30818 37002 ft 482 kts 232°
2026-05-05 19:19 -28.54376 152.24817 36999 ft 481 kts 232°
2026-05-05 19:20 -28.58513 152.18814 36996 ft 481 kts 232°
2026-05-05 19:20 -28.62642 152.12814 36998 ft 481 kts 232°
2026-05-05 19:21 -28.66769 152.06807 37003 ft 482 kts 232°
2026-05-05 19:21 -28.70326 152.01620 37003 ft 483 kts 232°
2026-05-05 19:22 -28.74482 151.95551 37001 ft 484 kts 232°
2026-05-05 19:22 -28.78608 151.89519 37004 ft 485 kts 232°
2026-05-05 19:23 -28.82753 151.83448 37005 ft 485 kts 232°
2026-05-05 19:23 -28.86901 151.77364 36999 ft 485 kts 232°
2026-05-05 19:24 -28.91040 151.71283 36999 ft 485 kts 232°
2026-05-05 19:24 -28.95158 151.65190 37003 ft 484 kts 233°
2026-05-05 19:25 -28.99170 151.59085 37001 ft 483 kts 233°
2026-05-05 19:25 -29.03188 151.52937 36999 ft 482 kts 233°
2026-05-05 19:26 -29.07204 151.46805 37003 ft 481 kts 233°
2026-05-05 19:26 -29.11210 151.40690 36999 ft 480 kts 233°
2026-05-05 19:27 -29.15202 151.34586 37001 ft 479 kts 233°
2026-05-05 19:27 -29.19189 151.28477 37000 ft 479 kts 233°
2026-05-05 19:28 -29.23174 151.22360 37001 ft 479 kts 233°
2026-05-05 19:28 -29.27077 151.16233 37001 ft 479 kts 234°
2026-05-05 19:29 -29.30991 151.10031 37003 ft 480 kts 234°
2026-05-05 19:29 -29.34906 151.03830 37001 ft 480 kts 234°
2026-05-05 19:30 -29.38785 150.97688 37003 ft 481 kts 234°
2026-05-05 19:30 -29.42715 150.91459 37000 ft 482 kts 234°
2026-05-05 19:31 -29.45978 150.86281 37003 ft 482 kts 234°
2026-05-05 19:31 -29.50019 150.79856 37000 ft 482 kts 234°
2026-05-05 19:32 -29.53945 150.73604 37003 ft 483 kts 234°
2026-05-05 19:32 -29.57864 150.67353 37001 ft 482 kts 234°
2026-05-05 19:33 -29.61783 150.61093 37000 ft 482 kts 234°
2026-05-05 19:33 -29.65700 150.54828 37002 ft 481 kts 234°
2026-05-05 19:34 -29.69600 150.48577 37000 ft 481 kts 234°
2026-05-05 19:35 -29.75408 150.39242 37001 ft 480 kts 234°
2026-05-05 19:35 -29.79248 150.33056 37000 ft 479 kts 234°
2026-05-05 19:36 -29.83134 150.26785 36999 ft 480 kts 234°
2026-05-05 19:36 -29.86980 150.20570 37008 ft 480 kts 234°
2026-05-05 19:37 -29.89998 150.15688 37001 ft 480 kts 234°
2026-05-05 19:37 -29.93903 150.09371 37001 ft 480 kts 234°
2026-05-05 19:38 -29.97779 150.03092 37002 ft 481 kts 234°
2026-05-05 19:38 -30.01608 149.96875 37002 ft 481 kts 234°
2026-05-05 19:39 -30.05453 149.90620 37001 ft 481 kts 235°
2026-05-05 19:39 -30.09317 149.84325 37001 ft 480 kts 235°
2026-05-05 19:40 -30.13181 149.78019 37001 ft 480 kts 235°
2026-05-05 19:40 -30.17036 149.71719 37001 ft 480 kts 235°
2026-05-05 19:41 -30.20885 149.65418 37001 ft 479 kts 235°
2026-05-05 19:41 -30.24704 149.59158 37001 ft 479 kts 235°
2026-05-05 19:42 -30.28542 149.52855 37001 ft 479 kts 235°
2026-05-05 19:42 -30.32379 149.46546 37001 ft 479 kts 235°
2026-05-05 19:43 -30.36207 149.40240 37001 ft 479 kts 235°
2026-05-05 19:43 -30.40035 149.33925 37002 ft 479 kts 235°
2026-05-05 19:44 -30.43858 149.27607 37001 ft 479 kts 235°
2026-05-05 19:44 -30.47660 149.21315 37001 ft 479 kts 235°
2026-05-05 19:45 -30.51482 149.14978 37001 ft 479 kts 235°
2026-05-05 19:45 -30.55299 149.08640 37002 ft 479 kts 235°
2026-05-05 19:46 -30.59115 149.02294 37001 ft 479 kts 235°
2026-05-05 19:46 -30.62861 148.96054 37001 ft 479 kts 235°
2026-05-05 19:47 -30.66669 148.89699 37001 ft 479 kts 235°
2026-05-05 19:47 -30.70483 148.83324 37001 ft 479 kts 235°
2026-05-05 19:48 -30.74292 148.76950 37001 ft 479 kts 235°
2026-05-05 19:48 -30.78095 148.70580 37001 ft 479 kts 235°
2026-05-05 19:49 -30.81890 148.64212 37001 ft 479 kts 235°
2026-05-05 19:49 -30.85689 148.57823 37001 ft 479 kts 235°
2026-05-05 19:50 -30.89460 148.51470 37001 ft 479 kts 236°
2026-05-05 19:50 -30.93248 148.45077 37001 ft 479 kts 236°
2026-05-05 19:51 -30.97033 148.38679 37001 ft 479 kts 236°
2026-05-05 19:51 -31.00813 148.32279 37001 ft 479 kts 236°
2026-05-05 19:52 -31.04586 148.25881 37001 ft 479 kts 236°
2026-05-05 19:52 -31.07760 148.20489 37001 ft 479 kts 236°
2026-05-05 19:53 -31.11576 148.13996 37001 ft 479 kts 236°
2026-05-05 19:53 -31.15335 148.07569 37001 ft 479 kts 236°
2026-05-05 19:54 -31.19028 148.01097 37002 ft 479 kts 237°
2026-05-05 19:54 -31.22659 147.94685 37001 ft 479 kts 237°
2026-05-05 19:55 -31.25721 147.89279 37001 ft 479 kts 237°
2026-05-05 19:55 -31.29407 147.82773 37001 ft 479 kts 237°
2026-05-05 19:56 -31.33068 147.76307 37001 ft 479 kts 237°
2026-05-05 19:56 -31.36749 147.69794 37001 ft 479 kts 237°
2026-05-05 19:57 -31.39782 147.64419 37001 ft 479 kts 237°
2026-05-05 19:57 -31.42248 147.60043 37001 ft 479 kts 237°
2026-05-05 19:58 -31.45940 147.53483 37001 ft 479 kts 237°
2026-05-05 19:58 -31.49607 147.46957 37001 ft 479 kts 237°
2026-05-05 19:59 -31.53273 147.40421 37001 ft 479 kts 237°
2026-05-05 19:59 -31.56932 147.33886 37001 ft 479 kts 237°
2026-05-05 20:00 -31.60566 147.27385 37001 ft 479 kts 237°
2026-05-05 20:00 -31.64220 147.20838 37001 ft 479 kts 237°
2026-05-05 20:01 -31.67871 147.14284 37001 ft 479 kts 237°
2026-05-05 20:01 -31.71516 147.07729 37001 ft 479 kts 237°
2026-05-05 20:02 -31.75164 147.01160 37001 ft 479 kts 237°
2026-05-05 20:02 -31.78737 146.94713 37001 ft 479 kts 237°
2026-05-05 20:03 -31.82375 146.88139 37001 ft 479 kts 237°
2026-05-05 20:03 -31.86007 146.81563 37002 ft 479 kts 237°
2026-05-05 20:04 -31.89102 146.75951 37001 ft 479 kts 237°
2026-05-05 20:04 -31.92725 146.69372 37001 ft 480 kts 237°
2026-05-05 20:05 -31.96350 146.62776 37001 ft 480 kts 237°
2026-05-05 20:05 -31.99975 146.56170 37002 ft 480 kts 237°
2026-05-05 20:06 -32.03594 146.49562 37001 ft 480 kts 237°
2026-05-05 20:06 -32.07215 146.42941 37001 ft 480 kts 237°
2026-05-05 20:07 -32.10832 146.36315 37001 ft 480 kts 237°
2026-05-05 20:07 -32.14447 146.29681 37002 ft 481 kts 237°
2026-05-05 20:08 -32.18058 146.23043 37001 ft 481 kts 237°
2026-05-05 20:08 -32.21666 146.16398 37002 ft 480 kts 237°
2026-05-05 20:09 -32.25245 146.09794 37001 ft 480 kts 237°
2026-05-05 20:09 -32.28840 146.03151 37001 ft 480 kts 237°
2026-05-05 20:10 -32.32393 145.96573 37001 ft 480 kts 237°
2026-05-05 20:10 -32.35987 145.89906 37002 ft 480 kts 238°
2026-05-05 20:11 -32.38965 145.84376 37001 ft 480 kts 238°
2026-05-05 20:11 -32.42210 145.78339 37000 ft 480 kts 238°
2026-05-05 20:12 -32.45833 145.71587 37002 ft 480 kts 238°
2026-05-05 20:12 -32.49408 145.64911 37001 ft 480 kts 238°
2026-05-05 20:13 -32.52980 145.58232 37001 ft 480 kts 238°
2026-05-05 20:13 -32.56552 145.51538 37002 ft 479 kts 238°
2026-05-05 20:14 -32.60118 145.44844 37001 ft 479 kts 238°
2026-05-05 20:14 -32.63650 145.38204 37001 ft 479 kts 238°
2026-05-05 20:15 -32.67203 145.31510 37001 ft 479 kts 238°
2026-05-05 20:15 -32.70749 145.24820 37001 ft 479 kts 238°
2026-05-05 20:16 -32.74296 145.18114 37001 ft 479 kts 238°
2026-05-05 20:16 -32.77835 145.11412 37002 ft 479 kts 238°
2026-05-05 20:17 -32.81375 145.04694 37001 ft 479 kts 238°
2026-05-05 20:17 -32.84834 144.98120 37001 ft 479 kts 238°
2026-05-05 20:18 -32.88368 144.91391 37001 ft 479 kts 238°
2026-05-05 20:18 -32.91894 144.84664 37002 ft 479 kts 238°
2026-05-05 20:19 -32.95418 144.77929 37001 ft 479 kts 238°
2026-05-05 20:19 -32.98934 144.71198 37001 ft 479 kts 238°
2026-05-05 20:20 -33.02422 144.64507 37001 ft 479 kts 238°
2026-05-05 20:20 -33.05929 144.57767 37002 ft 479 kts 238°
2026-05-05 20:21 -33.09436 144.51016 37001 ft 479 kts 238°
2026-05-05 20:21 -33.12944 144.44251 37001 ft 479 kts 238°
2026-05-05 20:22 -33.16447 144.37481 37001 ft 479 kts 238°
2026-05-05 20:22 -33.19925 144.30749 37001 ft 479 kts 238°
2026-05-05 20:23 -33.23415 144.23980 37002 ft 479 kts 238°
2026-05-05 20:23 -33.26904 144.17201 37001 ft 479 kts 238°
2026-05-05 20:24 -33.30376 144.10442 37001 ft 479 kts 238°
2026-05-05 20:24 -33.33860 144.03646 37001 ft 479 kts 238°
2026-05-05 20:25 -33.37293 143.96939 37001 ft 479 kts 239°
2026-05-05 20:25 -33.40766 143.90138 37001 ft 479 kts 239°
2026-05-05 20:26 -33.44230 143.83340 37001 ft 479 kts 239°
2026-05-05 20:26 -33.47697 143.76522 37001 ft 479 kts 239°
2026-05-05 20:27 -33.50945 143.69560 37003 ft 478 kts 242°
2026-05-05 20:27 -33.54063 143.62519 37001 ft 479 kts 242°
2026-05-05 20:28 -33.57200 143.55473 37001 ft 479 kts 242°
2026-05-05 20:28 -33.60339 143.48487 37002 ft 479 kts 242°
2026-05-05 20:29 -33.63504 143.41460 37002 ft 479 kts 242°
2026-05-05 20:29 -33.66669 143.34419 37001 ft 479 kts 242°
2026-05-05 20:30 -33.69830 143.27369 37001 ft 479 kts 242°
2026-05-05 20:30 -33.72963 143.20365 37001 ft 479 kts 242°
2026-05-05 20:31 -33.76114 143.13308 37001 ft 479 kts 242°
2026-05-05 20:31 -33.78749 143.07395 37001 ft 479 kts 242°
2026-05-05 20:32 -33.80848 143.02677 37001 ft 479 kts 242°
2026-05-05 20:32 -33.83132 142.97536 37001 ft 479 kts 242°
2026-05-05 20:33 -33.85578 142.92022 37001 ft 479 kts 242°
2026-05-05 20:33 -33.88742 142.84878 37001 ft 479 kts 242°
2026-05-05 20:34 -33.91848 142.77850 37001 ft 479 kts 242°
2026-05-05 20:34 -33.94977 142.70757 37001 ft 479 kts 242°
2026-05-05 20:35 -33.97589 142.64823 37001 ft 479 kts 242°
2026-05-05 20:35 -34.00601 142.57968 37001 ft 479 kts 242°
2026-05-05 20:36 -34.03788 142.50699 37002 ft 479 kts 242°
2026-05-05 20:36 -34.06864 142.43670 37001 ft 479 kts 242°
2026-05-05 20:37 -34.09978 142.36540 37002 ft 479 kts 242°
2026-05-05 20:37 -34.13076 142.29429 37001 ft 479 kts 242°
2026-05-05 20:38 -34.16176 142.22299 37001 ft 479 kts 242°
2026-05-05 20:38 -34.19263 142.15183 37001 ft 479 kts 242°
2026-05-05 20:39 -34.22344 142.08043 37000 ft 478 kts 244°
2026-05-05 20:39 -34.24956 142.00700 37007 ft 478 kts 248°
2026-05-05 20:40 -34.27377 141.93405 37001 ft 478 kts 248°
2026-05-05 20:40 -34.29863 141.85925 37001 ft 478 kts 248°
2026-05-05 20:41 -34.32359 141.78466 37002 ft 478 kts 248°
2026-05-05 20:41 -34.34862 141.71001 37001 ft 478 kts 248°
2026-05-05 20:42 -34.37346 141.63575 37001 ft 479 kts 248°
2026-05-05 20:42 -34.39839 141.56099 37001 ft 479 kts 248°
2026-05-05 20:43 -34.41832 141.50111 37001 ft 479 kts 248°
2026-05-05 20:43 -34.44323 141.42606 37000 ft 479 kts 248°
2026-05-05 20:44 -34.46803 141.35119 37002 ft 479 kts 248°
2026-05-05 20:44 -34.48860 141.28893 37001 ft 479 kts 248°
2026-05-05 20:45 -34.52966 141.16429 37001 ft 479 kts 248°
2026-05-05 20:45 -34.55011 141.10204 37002 ft 478 kts 248°
2026-05-05 20:46 -34.57471 141.02695 37001 ft 478 kts 248°
2026-05-05 20:46 -34.59864 140.95374 37001 ft 478 kts 248°
2026-05-05 20:47 -34.62311 140.87869 37002 ft 478 kts 248°
2026-05-05 20:47 -34.64756 140.80352 37001 ft 478 kts 249°
2026-05-05 20:48 -34.67188 140.72854 36432 ft 487 kts 249°
2026-05-05 20:48 -34.68433 140.69007 35691 ft 489 kts 249°
2026-05-05 20:48 -34.69679 140.65153 34781 ft 490 kts 249°
2026-05-05 20:49 -34.70929 140.61286 33856 ft 491 kts 249°
2026-05-05 20:49 -34.72135 140.57394 32877 ft 492 kts 252°
2026-05-05 20:49 -34.73037 140.53375 31867 ft 493 kts 257°
2026-05-05 20:49 -34.73654 140.49266 30832 ft 495 kts 262°
2026-05-05 20:50 -34.73935 140.45163 30086 ft 489 kts 267°
2026-05-05 20:50 -34.74090 140.41056 29337 ft 485 kts 267°
2026-05-05 20:50 -34.74229 140.36965 28574 ft 481 kts 268°
2026-05-05 20:50 -34.74367 140.32927 27848 ft 477 kts 267°
2026-05-05 20:51 -34.74511 140.28912 27129 ft 473 kts 267°
2026-05-05 20:51 -34.74660 140.24941 26404 ft 469 kts 267°
2026-05-05 20:51 -34.74813 140.20992 25709 ft 465 kts 267°
2026-05-05 20:51 -34.74966 140.17084 25000 ft 461 kts 267°
2026-05-05 20:52 -34.75104 140.13571 24395 ft 457 kts 267°
2026-05-05 20:52 -34.75210 140.10854 23893 ft 455 kts 267°
2026-05-05 20:52 -34.75352 140.07181 23238 ft 451 kts 267°
2026-05-05 20:52 -34.75502 140.03273 22528 ft 447 kts 267°
2026-05-05 20:53 -34.75639 139.99666 21894 ft 443 kts 267°
2026-05-05 20:53 -34.75777 139.95990 21242 ft 440 kts 267°
2026-05-05 20:53 -34.75915 139.92284 20584 ft 436 kts 267°
2026-05-05 20:53 -34.76050 139.88631 19935 ft 432 kts 267°
2026-05-05 20:54 -34.76184 139.84979 19286 ft 428 kts 267°
2026-05-05 20:54 -34.76313 139.81421 18697 ft 424 kts 267°
2026-05-05 20:54 -34.76420 139.78452 18167 ft 421 kts 267°
2026-05-05 20:54 -34.76519 139.75699 17740 ft 417 kts 267°
2026-05-05 20:55 -34.76639 139.72328 17071 ft 404 kts 267°
2026-05-05 20:55 -34.76761 139.68881 16399 ft 388 kts 267°
2026-05-05 20:55 -34.76876 139.65597 15817 ft 387 kts 267°
2026-05-05 20:55 -34.76990 139.62323 15239 ft 387 kts 268°
2026-05-05 20:56 -34.77102 139.59049 14652 ft 386 kts 268°
2026-05-05 20:56 -34.77214 139.55791 14064 ft 385 kts 268°
2026-05-05 20:56 -34.77322 139.52584 13490 ft 384 kts 268°
2026-05-05 20:56 -34.77432 139.49330 12908 ft 383 kts 268°
2026-05-05 20:57 -34.77540 139.46105 12324 ft 382 kts 268°
2026-05-05 20:57 -34.77647 139.42896 11881 ft 376 kts 268°
2026-05-05 20:57 -34.77744 139.39797 11746 ft 352 kts 268°
2026-05-05 20:57 -34.77814 139.36961 11497 ft 320 kts 268°
2026-05-05 20:58 -34.77869 139.34381 11152 ft 298 kts 268°
2026-05-05 20:58 -34.77896 139.33107 10881 ft 290 kts 268°
2026-05-05 20:58 -34.77946 139.30740 10222 ft 284 kts 268°
2026-05-05 20:58 -34.77996 139.28416 9543 ft 283 kts 268°
2026-05-05 20:59 -34.78048 139.25960 8911 ft 285 kts 268°
2026-05-05 20:59 -34.78100 139.23549 8636 ft 282 kts 268°
2026-05-05 20:59 -34.78150 139.21179 8378 ft 278 kts 268°
2026-05-05 20:59 -34.78200 139.18836 8064 ft 277 kts 268°
2026-05-05 21:00 -34.78249 139.16498 7718 ft 276 kts 268°
2026-05-05 21:00 -34.78298 139.14166 7386 ft 275 kts 268°
2026-05-05 21:00 -34.78346 139.11842 7085 ft 273 kts 268°
2026-05-05 21:00 -34.78393 139.09559 6939 ft 268 kts 268°
2026-05-05 21:01 -34.78440 139.07272 6938 ft 275 kts 268°
2026-05-05 21:01 -34.78492 139.04808 6981 ft 308 kts 268°
2026-05-05 21:01 -34.78549 139.02148 6719 ft 321 kts 268°
2026-05-05 21:01 -34.78603 138.99571 6153 ft 330 kts 268°
2026-05-05 21:02 -34.78661 138.96773 5769 ft 328 kts 268°
2026-05-05 21:02 -34.78716 138.94123 5625 ft 303 kts 268°
2026-05-05 21:02 -34.78767 138.91660 5450 ft 280 kts 268°
2026-05-05 21:02 -34.78795 138.90282 5358 ft 267 kts 268°
2026-05-05 21:03 -34.78840 138.88076 5166 ft 252 kts 268°
2026-05-05 21:03 -34.78880 138.86037 5050 ft 244 kts 268°
2026-05-05 21:03 -34.78922 138.83938 4862 ft 234 kts 268°
2026-05-05 21:03 -34.78959 138.81999 4660 ft 221 kts 268°
2026-05-05 21:04 -34.78995 138.80142 4555 ft 225 kts 268°
2026-05-05 21:04 -34.79033 138.78204 4257 ft 230 kts 268°
2026-05-05 21:04 -34.79223 138.76361 4113 ft 218 kts 246°
2026-05-05 21:04 -34.80004 138.74804 3983 ft 220 kts 235°
2026-05-05 21:05 -34.80913 138.73326 3713 ft 224 kts 232°
2026-05-05 21:05 -34.81447 138.72528 3615 ft 220 kts 231°
2026-05-05 21:05 -34.82377 138.71177 3541 ft 209 kts 230°
2026-05-05 21:05 -34.83341 138.69788 3249 ft 212 kts 230°
2026-05-05 21:06 -34.84266 138.68455 2994 ft 205 kts 230°
2026-05-05 21:06 -34.85173 138.67148 2724 ft 200 kts 230°
2026-05-05 21:06 -34.86054 138.65878 2450 ft 194 kts 230°
2026-05-05 21:06 -34.86912 138.64640 2188 ft 188 kts 230°
2026-05-05 21:07 -34.87756 138.63421 1954 ft 189 kts 230°
2026-05-05 21:07 -34.88589 138.62219 1713 ft 181 kts 230°
2026-05-05 21:07 -34.89008 138.61614 1567 ft 174 kts 230°
2026-05-05 21:07 -34.89739 138.60558 1349 ft 158 kts 230°
2026-05-05 21:08 -34.90401 138.59603 1147 ft 141 kts 231°
2026-05-05 21:08 -34.91058 138.58652 1005 ft 146 kts 230°
2026-05-05 21:08 -34.91415 138.58136 881 ft 147 kts 230°
2026-05-05 21:08 -34.91977 138.57323 697 ft 146 kts 230°
2026-05-05 21:09 -34.92616 138.56401 514 ft 145 kts 230°
2026-05-05 21:09 -34.93276 138.55448 314 ft 144 kts 230°
2026-05-05 21:09 -34.93917 138.54520 128 ft 145 kts 231°
2026-05-05 21:09 -34.94566 138.53603 32 ft 136 kts 235°
2026-05-05 21:10 -34.95093 138.52830 29 ft 95 kts 229°
2026-05-05 21:10 -34.95407 138.52369 27 ft 57 kts 228°
2026-05-05 21:10 -34.95657 138.52022 30 ft 51 kts 229°
2026-05-05 21:10 -34.95807 138.51750 27 ft 24 kts 264°
2026-05-05 21:11 -34.95700 138.51642 27 ft 19 kts 22°
2026-05-05 21:11 -34.95600 138.51742 32 ft 19 kts 45°
2026-05-05 21:11 -34.95516 138.51864 30 ft 19 kts 51°
2026-05-05 21:11 -34.95431 138.51985 30 ft 19 kts 48°
2026-05-05 21:12 -34.95348 138.52106 26 ft 19 kts 58°
2026-05-05 21:12 -34.95264 138.52228 29 ft 19 kts 39°
2026-05-05 21:12 -34.95158 138.52324 28 ft 19 kts 35°
2026-05-05 21:12 -34.95055 138.52424 30 ft 19 kts 38°
2026-05-05 21:13 -34.94951 138.52522 29 ft 19 kts 37°
2026-05-05 21:13 -34.94845 138.52621 29 ft 19 kts 38°
2026-05-05 21:13 -34.94740 138.52719 29 ft 19 kts 37°
2026-05-05 21:13 -34.94637 138.52816 30 ft 19 kts 39°
2026-05-05 21:14 -34.94534 138.52917 28 ft 19 kts 38°
2026-05-05 21:14 -34.94445 138.53035 27 ft 19 kts 77°
2026-05-05 21:14 -34.94490 138.53187 28 ft 20 kts 120°
2026-05-05 21:14 -34.94498 138.53345 27 ft 20 kts 62°
2026-05-05 21:15 -34.94412 138.53476 27 ft 20 kts 49°
2026-05-05 21:15 -34.94323 138.53601 28 ft 20 kts 50°
2026-05-05 21:15 -34.94233 138.53729 29 ft 20 kts 50°
2026-05-05 21:15 -34.94147 138.53856 29 ft 12 kts 50°
2026-05-05 21:16 -34.94087 138.53895 30 ft 11 kts 342°
2026-05-05 21:16 -34.94038 138.53890 30 ft 6 kts
2026-05-05 21:16 -34.93995 138.53882 31 ft 6 kts 329°
2026-05-05 21:16 -34.93964 138.53857 32 ft 3 kts 322°
2026-05-05 21:17 -34.93955 138.53848 32 ft 0 kts 322°
2026-05-05 21:17 -34.93955 138.53847 32 ft 0 kts 322°
2026-05-05 21:17 -34.93954 138.53847 32 ft 0 kts 322°
2026-05-05 21:17 -34.93949 138.53842 32 ft 2 kts 321°
2026-05-05 21:18 -34.93939 138.53832 32 ft 0 kts 320°
2026-05-05 21:18 -34.93938 138.53831 32 ft 0 kts 320°